Location: Burbage
(51.3333°N, 1.6667°W)
Time: 06:54:11
(UTC+00:00)

Daily predictions for brighter satellites

Satellite Brightness Start Highest point End
(mag) Time Altitude Azimuth Time Altitude Azimuth Time Altitude Azimuth
CZ-4B R/B 3.3 17:12:06 10° SSE 17:17:43 88° ENE 17:23:16 10° NNW
Cosmos 1655 Rocket 4.4 17:13:31 10° NNW 17:19:56 75° W 17:26:19 10° S
Cosmos 2098 Rocket 3.8 17:17:23 10° NNW 17:20:21 39° W 17:23:05 10° SSW
Okean-O 3.8 17:16:57 10° ESE 17:20:25 23° ENE 17:23:54 10° N
Cosmos 1656 Rocket 4.2 17:15:44 10° SW 17:21:17 62° NW 17:26:56 10° NNE
Cosmos 1809 Rocket 4.5 17:15:53 10° N 17:22:04 82° E 17:28:11 10° SSE
AQUARIUS 4.1 17:17:46 10° SSE 17:22:16 77° ENE 17:26:47 10° NNW
NOSS 2-2 (E) 4.4 17:17:02 10° NW 17:22:20 79° NE 17:29:46 10° SE
Cosmos 1400 Rocket 4.1 17:22:12 10° SE 17:25:16 21° E 17:28:20 10° NE
Meteor 1-16 Rocket 4.3 17:20:26 10° SSW 17:26:04 86° W 17:31:33 10° NNE
Cosmos 2227 Rocket 2.6 17:21:29 10° NNW 17:26:55 44° NE 17:32:19 10° ESE
Cosmos 1908 3.2 17:23:10 10° S 17:27:01 89° WNW 17:30:56 10° N
Cosmos 2266 Rocket 4.2 17:21:17 10° NNW 17:27:32 82° W 17:33:51 10° S
Cosmos 2058 4.4 17:25:13 10° NNE 17:27:58 17° ENE 17:30:42 10° ESE
H-2A R/B 3.4 17:24:32 10° ESE 17:28:30 21° NE 17:32:29 10° N
Cosmos 1892 4.0 17:26:27 10° NNE 17:29:28 21° ENE 17:32:28 10° ESE
CZ-4 R/B 2.5 17:27:38 10° ESE 17:30:39 22° ENE 17:33:38 10° NNE
GEOS 3 Rocket 4.3 17:25:51 10° E 17:30:47 39° NNE 17:35:46 10° NW
Cosmos 2263 Rocket 3.9 17:28:08 10° N 17:31:43 17° NNE 17:35:16 10° ENE
Cosmos 1408 4.2 17:31:20 10° NNE 17:33:36 15° ENE 17:35:51 10° ESE
BREEZE-M DEB (TANK) 3.9 17:30:15 10° WSW 17:33:43 84° SSE 17:46:14 10° ENE
Cosmos 1356 Rocket 4.1 17:29:31 10° SSW 17:33:45 62° WNW 17:38:04 10° N
BREEZE-M R/B 4.4 17:21:49 10° WSW 17:34:03 70° S 17:37:10 10° E
CZ-4C R/B 4.0 17:31:27 10° N 17:34:36 45° WNW 17:37:47 10° SW
NOSS 3-4 (A) 4.5 17:31:47 10° NW 17:37:49 36° NNE 17:44:12 11° E
NOSS 3-4 (C) 4.5 17:31:53 10° NW 17:37:54 36° NNE 17:44:16 11° E
CZ-4C R/B 3.8 17:32:46 10° NW 17:38:08 29° N 17:44:24 10° ENE
NOAA 12 4.4 17:34:18 10° S 17:39:35 76° WSW 17:44:57 10° NNW
NOSS 2-2 (D) 4.4 17:34:41 10° NW 17:39:55 84° NE 17:47:16 10° SE
Cosmos 1953 Rocket 3.5 17:36:08 10° N 17:40:32 65° ENE 17:44:57 10° SSE
Cosmos 1300 2.9 17:39:49 10° S 17:43:29 47° E 17:47:10 10° NNE
SL-4 R/B 1.6 17:42:26 10° W 17:45:57 84° N 17:49:04 14° E
Cosmos 1697 Rocket 4.1 17:43:29 10° SE 17:46:51 16° E 17:49:37 12° ENE
Cosmos 2058 Rocket 3.7 17:42:46 10° SSE 17:46:52 36° E 17:51:01 10° NNE
Cosmos 1331 Rocket 4.0 17:42:02 10° SSW 17:47:09 67° ESE 17:52:17 10° NNE
Cosmos 1346 Rocket 3.8 17:45:00 10° N 17:48:23 26° ENE 17:51:45 10° SE
IRS-1C Rocket 4.1 17:44:11 10° SSE 17:49:21 63° ENE 17:54:36 10° N
CZ-2D R/B 3.6 17:45:52 10° SE 17:49:25 40° ENE 17:53:01 10° N
USA 305 2.9 17:45:25 10° WNW 17:49:44 74° NNE 17:53:27 14° E
SeaSat 1 3.5 17:46:28 11° E 17:50:13 26° NE 17:54:18 10° NNW
Cosmos 1825 3.7 17:48:06 10° NNE 17:50:35 16° ENE 17:51:38 15° E
Cosmos 1953 4.4 17:47:31 10° SW 17:51:02 30° WNW 17:54:35 10° N
Cosmos 44 3.4 17:50:01 10° SSW 17:54:25 53° ESE 17:59:04 10° NE
USA 306 2.9 17:51:50 10° WNW 17:56:09 77° NNE 17:59:35 16° ESE
Cosmos 1315 Rocket 4.3 17:54:03 10° SE 17:56:20 16° E 17:56:20 16° E
NOAA 11 4.3 17:51:24 10° SSE 17:56:52 85° WSW 18:02:20 10° NNW
USA 215 3.6 17:51:39 13° E 17:57:26 56° N 18:03:48 10° WNW
SAR-Lupe-4 3.7 17:55:04 10° NNE 17:58:35 51° E 18:02:05 10° S
ERS-2 2.1 17:55:03 10° NNE 17:58:43 87° WNW 18:02:22 10° SSW
BREEZE-M R/B 3.4 17:56:22 10° W 17:59:53 75° S 18:05:18 15° E
ATLAS 2AS CENTAUR R/B 3.6 17:52:42 10° NW 17:59:55 39° NNE 18:05:16 16° E
Cosmos 968 Rocket 3.5 17:57:22 10° NNW 18:02:34 59° ENE 18:07:41 10° SE
Cosmos 1340 2.6 17:59:42 10° N 18:03:28 65° ENE 18:07:14 10° SSE
Cosmos 2297 Rocket 2.2 18:01:15 10° NNW 18:06:59 89° ENE 18:12:39 10° SSE
COSMO-SKYMED 1 2.7 18:03:05 10° NNE 18:07:22 53° E 18:11:37 10° S
Cosmos 2369 Rocket 4.1 18:02:59 10° W 18:07:37 25° NW 18:12:17 10° NNE
MOS 1 Rocket 4.4 18:04:09 10° NE 18:07:53 23° E 18:11:45 10° SE
Cosmos 1076 Rocket 4.3 18:04:43 10° N 18:08:28 29° ENE 18:11:35 13° SE
H-2A R/B 3.6 18:05:14 10° N 18:09:03 35° WNW 18:12:47 10° SW
In-Cosmos 22 Rocket 4.0 18:04:14 10° N 18:09:35 72° ENE 18:15:01 10° SSE
Cosmos 1980 Rocket 4.1 18:07:04 10° SE 18:07:19 11° ESE 18:07:19 11° ESE
Aureole 3 Rocket 3.3 18:08:20 10° S 18:12:23 62° E 18:18:04 10° NNE
Cosmos 1110 Rocket 4.3 18:10:38 10° SSW 18:15:51 70° WNW 18:21:06 10° NNE
SAR-Lupe-1 3.9 18:12:53 10° NNE 18:16:30 78° ESE 18:20:05 10° S
S3M 4.3 18:10:52 10° SSE 18:16:31 41° E 18:22:15 10° NNE
CSL-04 Debris 4.4 18:11:44 10° SE 18:16:55 47° ENE 18:22:09 10° N
Cosmos 1302 Rocket 4.0 18:12:56 10° S 18:18:09 66° ESE 18:23:25 10° NNE
SL-08 ROCKET BODY 4.4 18:13:11 10° N 18:19:16 64° ENE 18:25:23 10° SSE
Lacrosse 5 2.6 18:15:37 10° WNW 18:20:28 44° N 18:23:30 21° ENE
FALCON 9 DEB 3.1 18:17:22 10° WNW 18:20:47 69° N 18:22:07 34° E
FALCON 9 DEB 3.4 18:19:34 10° SW 18:22:40 46° SSE 18:23:30 36° ESE
ERBS 3.6 18:19:50 10° WNW 18:22:50 29° N 18:24:02 23° NE
Cosmos 1486 Rocket 4.0 18:17:43 10° NNW 18:23:07 85° ENE 18:28:26 10° SSE
Okean O Rocket 4.0 18:19:33 10° SSW 18:23:15 27° W 18:26:57 10° NW
Cosmos 292 Rocket 3.9 18:18:29 10° SSW 18:23:18 81° WNW 18:28:11 10° NNE
YAOGAN 1 2.5 18:20:13 10° SSE 18:24:29 63° ENE 18:28:48 10° N
Aureole 3 2.5 18:22:56 10° S 18:26:01 86° E 18:29:01 10° N
FALCON 9 DEB 3.2 18:23:44 10° SW 18:26:51 51° SSE 18:27:30 41° ESE
ADEOS Rocket 4.5 18:22:49 10° N 18:28:38 41° WNW 18:35:00 10° SW
Cosmos 1812 Rocket 4.4 18:27:26 10° SSE 18:35:45 - NNE 18:30:37 29° ESE
Cosmos 1455 2.9 18:28:32 10° SSE 18:31:13 32° ESE 18:31:13 32° ESE
Meteor 2-8 Rocket 4.4 18:26:09 10° S 18:32:16 83° E 18:38:27 10° NNE
Cosmos 1503 Rocket 4.0 18:27:43 10° NNW 18:32:55 63° ENE 18:37:11 15° SE
CZ-2C R/B 3.2 18:28:53 10° SSE 18:34:40 77° ENE 18:40:17 10° NNW
Cosmos 1726 Rocket 4.4 18:31:15 10° SSW 18:35:31 52° WNW 18:39:51 10° N
Cosmos 2219 3.9 18:31:37 10° NW 18:37:15 56° WSW 18:42:51 10° S
CZ-4B R/B 3.2 18:34:21 10° N 18:37:16 30° WNW 18:40:05 10° SW
FALCON 9 DEB 3.0 18:35:43 10° SW 18:38:54 58° SSE 18:39:09 55° SE
USA 307 2.9 18:34:49 10° WNW 18:39:07 76° SSW 18:40:52 34° SE
Cosmos 1939 Rocket 4.1 18:37:35 10° S 18:41:22 43° W 18:45:08 10° NNW
Geosat FO 4.5 18:41:07 40° SE 18:42:17 70° NE 18:45:47 10° NNW
USA 308 3.0 18:39:39 10° WNW 18:43:57 72° SSW 18:45:31 37° SE
Cosmos 1354 Rocket 3.9 18:39:14 10° NNW 18:44:30 68° ENE 18:47:53 22° SE
Meteor 2-10 Rocket 3.4 18:40:09 10° S 18:45:22 63° E 18:50:26 10° NNE
Cosmos 1553 Rocket 4.0 18:39:35 10° S 18:45:57 87° E 18:52:15 10° N
Cosmos 2082 3.6 18:40:17 10° NNW 18:46:04 85° ENE 18:50:45 16° SSE
Helios 1A Rocket 3.7 18:44:46 10° S 18:48:47 52° WSW 18:52:50 10° NNW
FALCON 9 DEB 3.0 18:47:17 10° WSW 18:50:17 67° S 18:50:17 67° S
Cosmos 1689 Rocket 3.2 18:48:52 10° N 18:51:38 42° WNW 18:54:24 10° SW
ATLAS 5 CENTAUR R/B 3.7 18:48:51 10° WNW 18:52:28 22° N 18:55:00 16° NNE
Meteor 2-15 Rocket 4.4 18:47:45 10° S 18:53:50 66° E 18:59:56 10° NNE
SKYMED 2 4.3 18:51:11 10° N 18:55:27 55° WNW 18:59:42 10° SSW
Okean-O 3.4 18:52:16 10° S 18:56:36 53° W 19:00:58 10° NNW
Cosmos 1992 Rocket 3.9 18:52:03 10° S 18:57:09 59° ESE 18:59:48 28° NE
Cosmos 2151 3.8 18:53:10 10° N 18:56:04 34° NNE 18:56:04 34° NNE
ARGOS 3.1 18:54:41 20° SSE 18:58:32 68° ENE 19:03:57 10° N
SL-08 RB Rocket 3.9 19:00:38 48° NE 19:00:38 48° NE 19:04:41 10° N
Cosmos 1400 Rocket 4.0 18:57:31 10° SW 19:01:27 44° WNW 19:05:23 10° N
Cosmos 2369 3.8 18:56:34 10° S 19:02:03 49° ESE 19:03:11 43° ENE
Cosmos 1656 3.7 18:59:31 10° SSW 19:05:07 84° WNW 19:10:04 14° NNE
Cosmos 1844 Rocket 4.4 19:01:19 10° NNW 19:05:09 18° NNE 19:05:18 18° NNE
Cosmos 2058 3.4 19:01:14 10° NNW 19:05:16 58° W 19:09:18 10° S
Cosmos 1892 4.1 19:01:40 10° NNW 19:05:20 40° W 19:08:58 10° SSW
CZ-4 R/B 2.5 19:01:46 10° S 19:05:28 42° W 19:09:10 10° NNW
Meteor 2-15 4.4 19:00:06 10° S 19:06:15 85° W 19:12:26 10° N
H-2A R/B 2.2 19:01:52 10° SSE 19:07:18 83° WSW 19:12:49 10° NNW
Ariane Rocket 3.4 19:07:50 44° NE 19:07:50 44° NE 19:12:21 10° N
Geosat 3.9 19:06:43 47° ENE 19:07:56 62° ESE 19:12:54 10° SSW
GEOS 3 Rocket 3.9 19:05:41 28° SSE 19:08:35 70° SW 19:14:00 10° NW
Cosmos 1408 3.4 19:05:21 10° NNW 19:08:54 51° W 19:11:40 16° SSW
Cosmos 1745 Rocket 4.3 19:02:43 10° NNW 19:08:59 70° W 19:15:16 10° S
Cosmos 220 Rocket 3.8 19:06:05 10° SSW 19:10:27 80° ESE 19:10:52 70° NE
Cosmos 2227 Rocket 3.4 19:05:42 10° NW 19:10:58 40° WSW 19:16:12 10° S
CSL-04 Rocket 3.9 19:11:06 10° S 19:16:38 70° WSW 19:22:10 10° NNW
Cosmos 2263 Rocket 2.4 19:11:30 10° NNW 19:17:03 50° NE 19:17:16 50° ENE
Timation 1 Rocket 4.3 19:11:59 10° NNW 19:18:02 85° WSW 19:20:34 37° SSE
Cosmos 1346 Rocket 4.5 19:21:11 10° NNW 19:24:48 34° W 19:28:25 10° SSW
Meteor 2-1 Rocket 4.3 19:19:33 10° SSW 19:25:03 75° WNW 19:30:38 10° N
SL-4 R/B 2.7 19:21:55 10° W 19:24:38 47° W 19:24:38 47° W
Cosmos 1825 2.9 19:22:43 10° NNW 19:26:25 51° W 19:26:28 51° W
SeaSat 1 2.5 19:26:16 53° S 19:27:22 75° WSW 19:32:20 10° NNW
CZ-4C R/B 3.2 19:21:44 10° NW 19:28:13 49° NNE 19:29:36 44° ENE
USA 305 3.8 19:25:34 10° WNW 19:29:36 41° SW 19:29:36 41° SW
NOSS 3-4 (A) 3.7 19:22:47 10° NW 19:29:39 81° NE 19:31:39 52° ESE
NOSS 3-4 (C) 3.7 19:22:54 10° NW 19:29:45 80° NE 19:31:43 53° ESE
Cosmos 1697 Rocket 2.5 19:24:21 10° SSW 19:29:59 86° ESE 19:31:25 52° NE
Cosmos 2184 Rocket 4.5 19:26:01 10° N 19:31:04 43° NE 19:31:04 43° NE
Cosmos 1315 Rocket 3.5 19:28:45 10° SSW 19:32:11 51° WSW 19:32:11 51° WSW
USA 306 4.0 19:32:00 10° WNW 19:35:44 37° SW 19:35:44 37° SW
DEBRIS 4.1 19:20:13 10° WSW 19:36:06 63° SSE 19:36:50 58° SE
Cosmos 1709 Rocket 4.2 19:32:25 10° NNW 19:38:47 72° W 19:44:29 13° S
USA 215 3.1 19:39:00 62° E 19:40:11 81° NNE 19:46:45 10° WNW
NOSS 3-3 (A) 3.8 19:35:03 10° SW 19:40:58 82° SE 19:41:47 69° ENE
NOSS 3-3 (C) 3.8 19:35:09 10° SW 19:41:06 82° SE 19:41:53 69° ENE
SJ 16-02 3.6 19:40:05 10° N 19:41:07 16° N 19:41:07 16° N
MOS 1 Rocket 4.0 19:41:53 10° N 19:46:24 53° WNW 19:51:10 10° SSW
Cosmos 1777 Rocket 4.2 19:46:38 10° NNW 19:51:06 65° NW 19:51:06 65° NW
ATLAS 2AS CENTAUR R/B 2.6 19:44:12 10° NW 19:51:53 85° NE 19:52:43 72° ESE
Cosmos 2074 Rocket 4.3 19:46:11 10° N 19:51:03 52° NNE 19:51:03 52° NNE
Cosmos 1980 Rocket 3.7 19:47:03 10° SSW 19:49:11 24° SSW 19:49:11 24° SSW
IRS-1A Rocket 4.2 19:53:26 80° NW 19:53:26 80° NW 19:58:46 10° NNW
Meteor 2-17 Rocket 4.4 19:49:27 10° N 19:55:02 76° N 19:55:02 76° N
COSMOS 2455 4.3 19:50:43 10° NNW 19:55:08 25° NNE 19:55:08 25° NNE
Resurs 01 Rocket 4.2 20:02:02 12° N 20:02:02 12° N 20:02:22 10° N
MOS 1 4.4 20:00:46 73° NW 20:00:46 73° NW 20:05:56 10° NNW
Cosmos 2315 Rocket 4.1 19:55:05 10° SSW 20:01:16 73° WNW 20:07:29 10° N
Lacrosse 5 2.8 19:59:03 10° WNW 20:02:41 44° NW 20:02:41 44° NW
Cosmos 2227 4.5 19:58:58 10° NNW 20:03:41 63° NW 20:03:41 63° NW
Meteor 2-3 Rocket 4.3 20:12:13 10° NNW 20:17:02 56° WNW 20:17:02 56° WNW
Cosmos 2278 Rocket 4.4 20:33:46 10° NNW 20:35:28 15° N 20:35:28 15° N
ATLAS 5 CENTAUR R/B 4.1 20:34:23 10° NW 20:36:32 20° NNW 20:36:32 20° NNW
Cosmos 2263 Rocket 4.0 20:55:43 10° NW 20:58:58 28° WNW 20:58:58 28° WNW
CZ-4C R/B 3.7 21:10:13 10° NW 21:14:46 44° WNW 21:14:46 44° WNW
ATLAS 2AS CENTAUR R/B 4.5 21:35:59 10° WNW 21:40:09 25° W 21:40:09 25° W
